< Cyclone 199411 1995 Season Cyclone 199502 >
Cyclone 199501 (ANNETTE)
General InformationDetailed Track InformationTrack Information on Google MapsList of All Images || ResourceGoogle EarthGE AnimationAtom FeedGeoJSON
Detalied Best Track Wind (Time Zone = UTC)
Year Month Day Hour Lat. Long. Wind (kt) Gust (kt) Direc. of Major Storm Axis Radius of Major Storm Axis (nm) Radius of Minor Storm Axis (nm) Direc. of Major Gale Axis Radius of Major Gale Axis (nm) Radius of Minor Gale Axis (nm) Image
1994 12 13 00 -12.4 116.0 0 -1 symmetric - - symmetric - - Image
1994 12 13 06 -12.4 116.0 0 -1 symmetric - - symmetric - - Image
1994 12 13 09 -12.4 116.0 21 -1 symmetric - - symmetric - - Image
1994 12 13 12 -12.4 116.0 21 -1 symmetric - - symmetric - - Image
1994 12 13 15 -12.4 116.0 21 -1 symmetric - - symmetric - - Image
1994 12 13 18 -12.4 116.0 21 -1 symmetric - - symmetric - - Image
1994 12 13 21 -12.4 116.0 21 -1 symmetric - - symmetric - - Image
1994 12 14 00 -12.4 116.0 23 -1 symmetric - - symmetric - - Image
1994 12 14 03 -12.4 115.8 27 -1 symmetric - - symmetric - - Image
1994 12 14 06 -12.4 115.7 27 -1 symmetric - - symmetric - - Image
1994 12 14 09 -12.4 115.6 29 -1 symmetric - - symmetric - - Image
1994 12 14 12 -12.4 115.6 29 -1 symmetric - - symmetric - - Image
1994 12 14 15 -12.4 115.6 33 -1 symmetric - - symmetric - - Image
1994 12 14 18 -12.4 115.6 35 -1 symmetric - - symmetric - - Image
1994 12 14 21 -12.4 115.6 41 -1 symmetric - - symmetric - - Image
1994 12 15 00 -12.4 115.6 47 -1 symmetric - - symmetric - - Image
1994 12 15 03 -12.4 115.6 54 -1 symmetric - - symmetric - - Image
1994 12 15 06 -12.5 115.6 60 -1 symmetric - - symmetric - - Image
1994 12 15 09 -12.6 115.6 60 -1 symmetric - - symmetric - - Image
1994 12 15 12 -12.7 115.6 60 -1 symmetric - - symmetric - - Image
1994 12 15 15 -12.8 115.6 66 -1 symmetric - - symmetric - - Image
1994 12 15 18 -12.9 115.6 70 -1 symmetric - - symmetric - - Image
1994 12 15 21 -13.0 115.6 76 -1 symmetric - - symmetric - - Image
1994 12 16 00 -13.1 115.7 80 -1 symmetric - - symmetric - - Image
1994 12 16 03 -13.2 115.8 84 -1 symmetric - - symmetric - - Image
1994 12 16 06 -13.4 115.9 89 -1 symmetric - - symmetric - - Image
1994 12 16 09 -13.6 116.0 93 -1 symmetric - - symmetric - - Image
1994 12 16 12 -13.9 116.2 93 -1 symmetric - - symmetric - - Image
1994 12 16 15 -14.1 116.4 89 -1 symmetric - - symmetric - - Image
1994 12 16 18 -14.3 116.7 84 -1 symmetric - - symmetric - - Image
1994 12 16 21 -14.6 117.0 80 -1 symmetric - - symmetric - - Image
1994 12 17 00 -14.9 117.4 80 -1 symmetric - - symmetric - - Image
1994 12 17 03 -15.3 117.8 80 -1 symmetric - - symmetric - - Image
1994 12 17 06 -15.6 118.1 80 -1 symmetric - - symmetric - - Image
1994 12 17 09 -15.9 118.4 80 -1 symmetric - - symmetric - - Image
1994 12 17 12 -16.2 118.7 80 -1 symmetric - - symmetric - - Image
1994 12 17 15 -16.5 119.1 84 -1 symmetric - - symmetric - - Image
1994 12 17 18 -16.9 119.6 93 -1 symmetric - - symmetric - - Image
1994 12 17 21 -17.4 119.9 101 -1 symmetric - - symmetric - - Image
1994 12 18 00 -18.0 120.2 105 -1 symmetric - - symmetric - - Image
1994 12 18 03 -18.5 120.4 101 -1 symmetric - - symmetric - - Image
1994 12 18 06 -19.1 120.6 101 -1 symmetric - - symmetric - - Image
1994 12 18 09 -19.7 120.9 97 -1 symmetric - - symmetric - - Image
1994 12 18 12 -20.3 121.3 80 -1 symmetric - - symmetric - - Image
1994 12 18 15 -21.1 121.8 60 -1 symmetric - - symmetric - - Image
1994 12 18 18 -21.8 122.2 41 -1 symmetric - - symmetric - - Image
1994 12 18 21 -22.6 122.6 35 -1 symmetric - - symmetric - - Image
1994 12 19 00 -23.2 123.0 35 -1 symmetric - - symmetric - - Image
1994 12 19 06 -24.7 123.8 35 -1 symmetric - - symmetric - - Image
1994 12 19 12 -25.3 124.9 35 -1 symmetric - - symmetric - - Image
1994 12 19 18 -28.7 126.8 35 -1 symmetric - - symmetric - - Image
1994 12 20 00 -31.2 129.2 35 -1 symmetric - - symmetric - - Image
1994 12 20 06 -32.3 130.8 35 -1 symmetric - - symmetric - - Image
< Cyclone 199411 1995 Season Cyclone 199502 >

Help